Time,TemperatureF,DewpointF,PressureIn,WindDirection,WindDirectionDegrees,WindSpeedMPH,WindSpeedGustMPH,Humidity,HourlyPrecipIn,Conditions,Clouds,dailyrainin,SoftwareType,DateUTC
2013-04-07 00:00:00,44.3,36.2,28.63,NW,324,2.0,4.0,73,0.00,RA,,0.00,WeatherDisplay:10.37,2013-04-07 05:00:00,
2013-04-07 00:15:00,42.1,31.9,28.63,NNE,31,5.0,6.0,67,0.00,,,0.00,WeatherDisplay:10.37,2013-04-07 05:15:00,
2013-04-07 00:30:00,42.3,36.3,28.63,NNE,18,3.0,6.0,79,0.00,,,0.00,WeatherDisplay:10.37,2013-04-07 05:30:00,
2013-04-07 00:45:00,42.8,35.4,28.64,NNE,22,3.0,6.0,75,0.00,,,0.00,WeatherDisplay:10.37,2013-04-07 05:45:00,
2013-04-07 01:00:00,41.5,35.8,28.64,NE,42,5.0,6.0,80,0.00,,,0.00,WeatherDisplay:10.37,2013-04-07 06:00:00,
2013-04-07 01:15:00,41.4,36.3,28.65,NE,45,2.0,6.0,82,0.00,,,0.00,WeatherDisplay:10.37,2013-04-07 06:15:00,
2013-04-07 01:30:00,41.4,36.0,28.66,NE,45,3.0,8.0,81,0.00,,,0.00,WeatherDisplay:10.37,2013-04-07 06:30:00,
2013-04-07 01:45:00,40.5,35.8,28.67,NE,40,5.0,6.0,83,0.00,,,0.00,WeatherDisplay:10.37,2013-04-07 06:45:00,
2013-04-07 02:00:00,37.6,33.5,28.67,ENE,63,2.0,6.0,85,0.00,,,0.00,WeatherDisplay:10.37,2013-04-07 07:00:00,
2013-04-07 02:15:00,38.2,35.5,28.67,NE,45,5.0,7.0,90,0.00,,,0.00,WeatherDisplay:10.37,2013-04-07 07:15:00,
2013-04-07 02:30:00,37.9,35.0,28.67,NE,38,2.0,6.0,89,0.00,,,0.00,WeatherDisplay:10.37,2013-04-07 07:30:00,
2013-04-07 02:45:00,37.0,34.1,28.67,NW,306,0.0,3.0,89,0.00,,,0.00,WeatherDisplay:10.37,2013-04-07 07:45:00,
2013-04-07 03:00:00,36.6,33.7,28.68,West,270,0.0,2.0,89,0.00,,,0.00,WeatherDisplay:10.37,2013-04-07 08:00:00,
2013-04-07 03:15:00,36.0,33.0,28.67,WNW,299,0.0,2.0,89,0.00,,,0.00,WeatherDisplay:10.37,2013-04-07 08:15:00,
2013-04-07 03:30:00,35.8,33.1,28.67,NE,45,0.0,3.0,90,0.00,,,0.00,WeatherDisplay:10.37,2013-04-07 08:30:00,
2013-04-07 03:45:00,36.1,33.8,28.67,NE,45,2.0,3.0,91,0.00,,,0.00,WeatherDisplay:10.37,2013-04-07 08:45:00,
2013-04-07 04:00:00,35.8,33.1,28.67,NE,45,1.0,3.0,90,0.00,,,0.00,WeatherDisplay:10.37,2013-04-07 09:00:00,
2013-04-07 04:15:00,35.9,33.3,28.67,West,279,0.0,2.0,90,0.00,,,0.00,WeatherDisplay:10.37,2013-04-07 09:15:00,
2013-04-07 04:30:00,35.4,33.0,28.67,North,0,0.0,2.0,91,0.00,,,0.00,WeatherDisplay:10.37,2013-04-07 09:30:00,
2013-04-07 04:45:00,34.4,32.1,28.67,NE,35,1.0,3.0,91,0.00,,,0.00,WeatherDisplay:10.37,2013-04-07 09:45:00,
2013-04-07 05:00:00,34.0,32.2,28.68,ENE,59,2.0,4.0,93,0.00,,,0.00,WeatherDisplay:10.37,2013-04-07 10:00:00,
2013-04-07 05:15:00,33.4,31.9,28.68,NNE,25,6.0,6.0,94,0.00,,,0.00,WeatherDisplay:10.37,2013-04-07 10:15:00,
2013-04-07 05:30:00,33.4,32.4,28.68,North,7,3.0,6.0,96,0.00,,,0.00,WeatherDisplay:10.37,2013-04-07 10:30:00,
2013-04-07 05:45:00,33.3,32.3,28.68,NE,42,6.0,6.0,96,0.00,,,0.00,WeatherDisplay:10.37,2013-04-07 10:45:00,
2013-04-07 06:00:00,32.2,31.2,28.68,NNE,32,5.0,7.0,96,0.00,,,0.00,WeatherDisplay:10.37,2013-04-07 11:00:00,
2013-04-07 06:15:00,31.8,31.1,28.69,NE,36,6.0,8.0,97,0.00,,,0.00,WeatherDisplay:10.37,2013-04-07 11:15:00,
2013-04-07 06:30:00,31.3,30.5,28.69,NNE,27,7.0,8.0,97,0.00,,,0.00,WeatherDisplay:10.37,2013-04-07 11:30:00,
2013-04-07 06:45:00,30.8,30.0,28.69,NE,45,8.0,11.0,97,0.00,,,0.00,WeatherDisplay:10.37,2013-04-07 11:45:00,
2013-04-07 07:00:00,30.4,29.9,28.70,NE,45,7.0,11.0,98,0.00,,,0.00,WeatherDisplay:10.37,2013-04-07 12:00:00,
2013-04-07 07:15:00,30.7,30.5,28.71,NE,45,7.0,10.0,99,0.00,,,0.00,WeatherDisplay:10.37,2013-04-07 12:15:00,
2013-04-07 07:30:00,31.3,31.0,28.71,NE,45,7.0,13.0,99,0.00,,,0.00,WeatherDisplay:10.37,2013-04-07 12:30:00,
2013-04-07 07:45:00,31.3,31.0,28.72,ENE,68,6.0,9.0,99,0.00,,,0.00,WeatherDisplay:10.37,2013-04-07 12:45:00,
2013-04-07 08:00:00,31.3,31.0,28.72,ENE,59,7.0,11.0,99,0.00,,,0.00,WeatherDisplay:10.37,2013-04-07 13:00:00,
2013-04-07 08:15:00,31.4,31.2,28.73,NE,52,6.0,11.0,99,0.00,,,0.00,WeatherDisplay:10.37,2013-04-07 13:15:00,
2013-04-07 08:30:00,32.2,31.9,28.72,East,82,7.0,12.0,99,0.00,,,0.00,WeatherDisplay:10.37,2013-04-07 13:30:00,
2013-04-07 08:45:00,32.5,31.8,28.71,ENE,73,9.0,13.0,97,0.00,,,0.00,WeatherDisplay:10.37,2013-04-07 13:45:00,
2013-04-07 09:00:00,33.9,32.9,28.71,NE,56,6.0,11.0,96,0.00,,,0.00,WeatherDisplay:10.37,2013-04-07 14:00:00,
2013-04-07 09:15:00,35.4,33.6,28.70,East,82,9.0,13.0,93,0.00,,,0.00,WeatherDisplay:10.37,2013-04-07 14:15:00,
2013-04-07 09:30:00,36.2,33.8,28.70,East,84,8.0,15.0,91,0.00,,,0.00,WeatherDisplay:10.37,2013-04-07 14:30:00,
2013-04-07 09:45:00,37.0,34.9,28.67,ENE,69,10.0,15.0,92,0.00,,,0.00,WeatherDisplay:10.37,2013-04-07 14:45:00,
2013-04-07 10:00:00,37.9,35.5,28.69,East,81,6.0,16.0,91,0.00,,,0.00,WeatherDisplay:10.37,2013-04-07 15:00:00,
2013-04-07 10:15:00,40.3,36.4,28.67,NE,51,14.0,17.0,86,0.00,,,0.00,WeatherDisplay:10.37,2013-04-07 15:15:00,
2013-04-07 10:30:00,41.3,36.5,28.67,East,93,10.0,20.0,83,0.00,,,0.00,WeatherDisplay:10.37,2013-04-07 15:30:00,
2013-04-07 10:45:00,43.4,36.0,28.68,ESE,117,8.0,15.0,75,0.00,,,0.00,WeatherDisplay:10.37,2013-04-07 15:45:00,
2013-04-07 11:00:00,44.6,37.2,28.68,SE,143,9.0,15.0,75,0.00,,,0.00,WeatherDisplay:10.37,2013-04-07 16:00:00,
2013-04-07 11:15:00,45.1,36.3,28.68,SE,138,10.0,15.0,71,0.00,,,0.00,WeatherDisplay:10.37,2013-04-07 16:15:00,
2013-04-07 11:45:00,49.0,37.8,28.66,ESE,105,8.0,16.0,65,0.00,,,0.00,WeatherDisplay:10.37,2013-04-07 16:45:00,
2013-04-07 12:00:00,50.0,37.9,28.64,East,97,13.0,20.0,63,0.00,,,0.00,WeatherDisplay:10.37,2013-04-07 17:00:00,
2013-04-07 12:30:00,52.5,38.6,28.63,SE,125,10.0,20.0,59,0.00,,,0.00,WeatherDisplay:10.37,2013-04-07 17:30:00,
2013-04-07 12:45:00,53.2,38.8,28.62,ESE,107,10.0,20.0,58,0.00,,,0.00,WeatherDisplay:10.37,2013-04-07 17:45:00,
2013-04-07 13:00:00,53.2,38.8,28.62,ESE,120,12.0,17.0,58,0.00,,,0.00,WeatherDisplay:10.37,2013-04-07 18:00:00,
2013-04-07 13:15:00,56.8,39.8,28.60,ESE,123,13.0,18.0,53,0.00,,,0.00,WeatherDisplay:10.37,2013-04-07 18:15:00,
2013-04-07 13:30:00,58.3,40.2,28.59,ESE,120,13.0,20.0,51,0.00,,,0.00,WeatherDisplay:10.37,2013-04-07 18:30:00,
2013-04-07 13:45:00,59.6,40.9,28.58,ESE,121,10.0,20.0,50,0.00,,,0.00,WeatherDisplay:10.37,2013-04-07 18:45:00,
2013-04-07 14:15:00,61.1,41.3,28.58,SE,145,8.0,17.0,48,0.00,,,0.00,WeatherDisplay:10.37,2013-04-07 19:15:00,
2013-04-07 14:30:00,62.6,41.5,28.57,SE,135,9.0,17.0,46,0.00,,,0.00,WeatherDisplay:10.37,2013-04-07 19:30:00,
2013-04-07 14:45:00,62.4,41.4,28.57,South,175,13.0,18.0,46,0.00,,,0.00,WeatherDisplay:10.37,2013-04-07 19:45:00,
2013-04-07 15:00:00,61.2,41.8,28.56,South,178,10.0,21.0,49,0.00,,,0.00,WeatherDisplay:10.37,2013-04-07 20:00:00,
2013-04-07 15:15:00,62.1,42.1,28.56,South,170,13.0,20.0,48,0.00,,,0.00,WeatherDisplay:10.37,2013-04-07 20:15:00,
2013-04-07 15:30:00,62.0,42.1,28.55,SE,137,7.0,17.0,48,0.00,,,0.00,WeatherDisplay:10.37,2013-04-07 20:30:00,
2013-04-07 15:45:00,62.8,42.8,28.54,SE,135,6.0,14.0,48,0.00,,,0.00,WeatherDisplay:10.37,2013-04-07 20:45:00,
2013-04-07 16:00:00,63.5,42.9,28.53,SE,143,7.0,13.0,47,0.00,,,0.00,WeatherDisplay:10.37,2013-04-07 21:00:00,
2013-04-07 16:15:00,64.9,43.1,28.53,SE,135,7.0,12.0,45,0.00,,,0.00,WeatherDisplay:10.37,2013-04-07 21:15:00,
2013-04-07 16:30:00,66.4,42.6,28.52,SSE,150,12.0,18.0,42,0.00,,,0.00,WeatherDisplay:10.37,2013-04-07 21:30:00,
2013-04-07 16:45:00,65.8,43.3,28.51,South,177,10.0,18.0,44,0.00,,,0.00,WeatherDisplay:10.37,2013-04-07 21:45:00,
2013-04-07 17:00:00,65.5,43.6,28.52,South,180,12.0,17.0,45,0.00,,,0.00,WeatherDisplay:10.37,2013-04-07 22:00:00,
2013-04-07 17:15:00,63.4,46.4,28.52,South,180,9.0,17.0,54,0.00,,,0.00,WeatherDisplay:10.37,2013-04-07 22:15:00,
2013-04-07 17:30:00,61.1,49.3,28.52,South,180,5.0,13.0,65,0.00,,,0.00,WeatherDisplay:10.37,2013-04-07 22:30:00,
2013-04-07 17:45:00,61.0,48.7,28.52,SSE,168,3.0,7.0,64,0.00,,,0.00,WeatherDisplay:10.37,2013-04-07 22:45:00,
2013-04-07 18:00:00,56.7,50.6,28.54,NW,305,5.0,12.0,80,0.00,,,0.00,WeatherDisplay:10.37,2013-04-07 23:00:00,
2013-04-07 18:15:00,54.4,51.5,28.54,NW,310,3.0,8.0,90,0.00,,,0.01,WeatherDisplay:10.37,2013-04-07 23:15:00,
2013-04-07 18:30:00,53.4,50.9,28.54,NW,324,3.0,6.0,91,0.00,RA,,0.02,WeatherDisplay:10.37,2013-04-07 23:30:00,
2013-04-07 18:45:00,52.7,50.1,28.53,North,349,1.0,6.0,91,0.00,,,0.02,WeatherDisplay:10.37,2013-04-07 23:45:00,
2013-04-07 19:00:00,52.3,50.7,28.52,NNE,15,8.0,12.0,94,0.00,RA,,0.04,WeatherDisplay:10.37,2013-04-08 00:00:00,
2013-04-07 19:15:00,52.5,50.3,28.51,NE,45,8.0,13.0,92,0.00,,,0.04,WeatherDisplay:10.37,2013-04-08 00:15:00,
2013-04-07 19:45:00,51.4,49.8,28.49,NE,45,9.0,14.0,94,0.00,,,0.04,WeatherDisplay:10.37,2013-04-08 00:45:00,
2013-04-07 20:15:00,52.3,50.1,28.50,ENE,63,5.0,12.0,92,0.00,,,0.04,WeatherDisplay:10.37,2013-04-08 01:15:00,
2013-04-07 20:30:00,52.8,49.9,28.50,East,92,1.0,6.0,90,0.00,,,0.04,WeatherDisplay:10.37,2013-04-08 01:30:00,
2013-04-07 20:45:00,52.5,49.7,28.49,NE,45,0.0,3.0,90,0.00,,,0.04,WeatherDisplay:10.37,2013-04-08 01:45:00,
2013-04-07 21:15:00,53.6,48.9,28.49,ESE,119,2.0,6.0,84,0.00,,,0.04,WeatherDisplay:10.37,2013-04-08 02:15:00,
2013-04-07 21:30:00,52.5,47.5,28.50,SSW,207,1.0,6.0,83,0.00,,,0.04,WeatherDisplay:10.37,2013-04-08 02:30:00,
2013-04-07 21:45:00,50.7,47.0,28.49,SW,225,0.0,2.0,87,0.00,,,0.04,WeatherDisplay:10.37,2013-04-08 02:45:00,
2013-04-07 22:15:00,49.8,47.0,28.49,South,190,1.0,2.0,90,0.00,,,0.04,WeatherDisplay:10.37,2013-04-08 03:15:00,
2013-04-07 22:30:00,49.1,46.3,28.48,NW,321,1.0,2.0,90,0.00,,,0.04,WeatherDisplay:10.37,2013-04-08 03:30:00,
2013-04-07 23:15:00,45.4,43.2,28.47,NE,51,0.0,2.0,92,0.00,,,0.04,WeatherDisplay:10.37,2013-04-08 04:15:00,
2013-04-07 23:30:00,44.4,42.5,28.47,East,91,1.0,4.0,93,0.00,,,0.04,WeatherDisplay:10.37,2013-04-08 04:30:00,
2013-04-07 23:45:00,45.1,44.1,28.47,West,276,0.0,2.0,96,0.00,,,0.04,WeatherDisplay:10.37,2013-04-08 04:45:00,